Regional Weather Roundup
Issued by NWS Newport/Morehead, NC

Current Version | Previous Version | Graphics & Text | Print | Product List | Glossary Off
Versions: 1 2 3 4 5 6 7 8 9 10 11 12 13 14 15 16 17 18 19 20 21 22 23 24 25 26 27 28 29 30 31 32 33 34 35 36 37 38 39 40 41 42 43 44 45 46 47 48 49 50

000
ASUS42 KMHX 242325
RWRMHX
WEATHER ROUNDUP FOR EASTERN NORTH CAROLINA
NATIONAL WEATHER SERVICE NEWPORT/MOREHEAD CITY NC
700 PM EDT WED MAY 24 2017

NOTE: "FAIR" INDICATES FEW OR NO CLOUDS BELOW 12,000 FEET
WITH NO SIGNIFICANT WEATHER AND/OR OBSTRUCTIONS TO VISIBILITY

NCZ015>017-031-032-045>047-102-103-250000-
NORTH COAST

CITY           SKY/WX    TMP DP  RH WIND       PRES   REMARKS
EDENTON        CLOUDY    68  64  88 E12       29.68F
ELIZABETH CITY CLOUDY    63  61  93 E15       29.71S
KITTY HAWK     CLOUDY    63  62  97 E3        29.71R
MANTEO         CLOUDY    64  61  91 E13       29.72R

$$

NCZ045>047-081-094-103-104-250000-
CENTRAL COAST

CITY           SKY/WX    TMP DP  RH WIND       PRES   REMARKS
FRISCO         NOT AVBL

$$

NCZ095-097-098-100-101-250000-
SOUTHERN COAST

CITY           SKY/WX    TMP DP  RH WIND       PRES   REMARKS
BEAUFORT       CLOUDY    76  71  85 SW13      29.67S
CEDAR ISLAND   NOT AVBL
JACKSONVILLE   LGT RAIN  73  70  90 S14G25    29.65R
PINEY ISLAND   LGT RAIN N/A N/A N/A S8        29.66F
WILMINGTON     LGT RAIN  72  69  90 S12       29.63F


$$

NCZ011>013-027>030-043-044-078>080-089-090>093-098-250000-
COASTAL PLAIN

CITY           SKY/WX    TMP DP  RH WIND       PRES   REMARKS
AHOSKIE          N/A     68  65  91 E8        29.65F
CLINTON        CLOUDY    74  72  92 S7        29.61R
ELIZABETHTOWN  CLOUDY    74  67  78 S6        29.60S
GOLDSBORO      CLOUDY    75  75 100 S7        29.59R
GREENVILLE     CLOUDY    73  72  94 SE9G16    29.64F
HAVELOCK       TSTM      75  70  84 SW20G39   29.68R VSB 1
KENANSVILLE    CLOUDY    75  70  83 S6        29.62R
KINSTON        CLOUDY    77  70  78 S9        29.60F
NEW BERN       LGT RAIN  77  72  84 S17       29.67R
RICHLANDS      LGT RAIN  75  71  87 S16       29.64R
ROCKY MOUNT    LGT RAIN  72  71  97 S9G20     29.60R FOG
WASHINGTON     CLOUDY    75  70  86 SE7       29.63F
WHITEVILLE     CLOUDY    74  66  78 S9G17     29.59R

$$

AMZ130-135-150-152-154-156-158-170-250-252-270-ANZ085-086-088-633-658-670-250000-
MARINE OBSERVATIONS

STATION/POSITION TIME  TEMP    WIND        PRES    WAVE   SWELL
                       AIR SEA DIR/SP/G            HT/PER HT/PER
                 (UTC) (F)     (DEG/KT/KT) (MB)    (FT/S) (FT/S)
CHESAPEAKE LIGHT NOT AVBL
64 E VA BEACH    2250   61 65   50/  8/ 10 1007.6    4/ 8   3/ 8
DUCK             2300   62 65   60/ 15/ 16 1005.8
2 E DUCK         2230      65                N/A     4/ 6
OREGON INLET     2300   65 72   60/  9/ 13 1006.1
13E OREGON INLT  2218      66                N/A     4/ 8   3/ 8
HATTERAS CG      2300   76 74  160/  5/  7 1005.3
DIAMOND BUOY     2250   76 76  220/ 10/ 12 1005.6    4/ 8   3/ 8
CAPE LOOKOUT     2300   76     200/ 12/ 14 1004.4
BEAUFORT LAB     2300   76 72  210/ 12/ 16 1004.0
30 SE NEW RVR IN 2308   74 76  240/ 21/ 27 1005.2
30 SE NEW RVR IN 2213      76                N/A     7/ 8
27 SE WRIGHTSVLE 2308   74 76  200/ 17/ 25 1003.9
5 SE WRIGHTSVLE  2308   74 75  170/ 10/ 17 1003.4
225 S CAPE HAT   2250   78 77  180/ 17/ 21 1009.3    8/ 7   3/11
41 SE CHARLESTON 2310   75 76  190/ 19/ 25 1002.5

$$




USA.gov is the U.S. government's official web portal to all federal, state and local government web resources and services.